ONEWEB-0110

Last updated on Mon Jan 18 2021 00:02:03 GMT+0000 (Coordinated Universal Time)

1 47260U 20100C 21017.58334491 -.01469511 00000-0 -85034-1 0 9990 2 47260 87.4363 29.0485 0008829 156.9301 171.0748 15.15420117 1772

Satellite not in orbit

ONEWEB-0110